FW0606 Weather Reports


Display with metric or nautical units.
time (UTC)temp
F
wind
direction
speed
MPH
gust
MPH
rain 1hr
in
rain 24hr
in
rain mn
in
humidity
%
barometer
mb
20260906223535 100 0 0.0 0.0 0.00 0.00 0.00 42 1012.1
20260906223101 100 0 0.0 0.0 0.00 0.00 0.00 41 1012.1
20260906222535 100 0 0.0 0.0 0.00 0.00 0.00 42 1012.2
20260906222036 100 0 0.0 0.0 0.00 0.00 0.00 43 1012.1
20260906221604 100 0 0.0 0.0 0.00 0.00 0.00 42 1012.3
20260906221035 100 0 0.0 0.0 0.00 0.00 0.00 41 1012.2
20260906220536 100 0 0.0 0.0 0.00 0.00 0.00 42 1012.2
20260906220058 100 0 0.0 0.0 0.00 0.00 0.00 43 1012.2
20260906215537 100 0 0.0 0.0 0.00 0.00 0.00 43 1012.2
20260906215038 100 0 0.0 0.0 0.00 0.00 0.00 42 1012.3
20260906214557 100 0 0.0 0.0 0.00 0.00 0.00 44 1012.3
20260906214035 100 0 0.0 0.0 0.00 0.00 0.00 44 1012.4
20260906213536 100 0 0.0 0.0 0.00 0.00 0.00 43 1012.5
20260906213057 99 0 0.0 0.0 0.00 0.00 0.00 45 1012.3
20260906212534 99 0 0.0 0.0 0.00 0.00 0.00 44 1012.5
20260906212035 99 0 0.0 0.0 0.00 0.00 0.00 43 1012.8
20260906211558 99 0 0.0 0.0 0.00 0.00 0.00 45 1012.9
20260906211034 99 0 0.0 0.0 0.00 0.00 0.00 44 1012.9
20260906210536 99 0 0.0 0.0 0.00 0.00 0.00 44 1013.0
20260906210051 99 0 0.0 0.0 0.00 0.00 0.00 44 1013.1
20260906205535 100 0 0.0 0.0 0.00 0.00 0.00 43 1013.1
20260906205034 100 0 0.0 0.0 0.00 0.00 0.00 44 1013.2
20260906204621 100 0 0.0 0.0 0.00 0.00 0.00 44 1013.2
20260906204035 100 0 0.0 0.0 0.00 0.00 0.00 44 1013.2
20260906203535 100 0 0.0 0.0 0.00 0.00 0.00 43 1013.2
20260906203057 100 0 0.0 0.0 0.00 0.00 0.00 44 1013.3
20260906202535 100 0 0.0 0.0 0.00 0.00 0.00 44 1013.2
20260906202035 99 0 0.0 0.0 0.00 0.00 0.00 44 1013.3
20260906201624 100 0 0.0 0.0 0.00 0.00 0.00 44 1013.3
20260906201036 99 0 0.0 0.0 0.00 0.00 0.00 45 1013.4
20260906200536 99 0 0.0 0.0 0.00 0.00 0.00 45 1013.4
20260906200052 98 0 0.0 0.0 0.00 0.00 0.00 45 1013.4
20260906195535 98 0 0.0 0.0 0.00 0.00 0.00 46 1013.6
20260906195035 99 0 0.0 0.0 0.00 0.00 0.00 44 1013.6
20260906194602 99 0 0.0 0.0 0.00 0.00 0.00 45 1013.7
20260906194035 99 0 0.0 0.0 0.00 0.00 0.00 45 1014.0
20260906193532 99 0 0.0 0.0 0.00 0.00 0.00 47 1014.0
20260906193107 99 0 0.0 0.0 0.00 0.00 0.00 45 1013.9
20260906192535 99 0 0.0 0.0 0.00 0.00 0.00 45 1014.0
20260906192035 99 0 0.0 0.0 0.00 0.00 0.00 47 1014.1
20260906191605 99 0 0.0 0.0 0.00 0.00 0.00 46 1014.1
20260906191047 98 0 0.0 0.0 0.00 0.00 0.00 46 1014.1
20260906190537 98 0 0.0 0.0 0.00 0.00 0.00 46 1014.1
20260906190058 98 0 0.0 0.0 0.00 0.00 0.00 47 1014.0
20260906185535 98 0 0.0 0.0 0.00 0.00 0.00 46 1014.2
20260906185035 98 0 0.0 0.0 0.00 0.00 0.00 48 1014.2
20260906184559 98 0 0.0 0.0 0.00 0.00 0.00 46 1014.1
20260906184038 98 0 0.0 0.0 0.00 0.00 0.00 49 1014.3
20260906183535 97 0 0.0 0.0 0.00 0.00 0.00 49 1014.3
20260906183103 98 0 0.0 0.0 0.00 0.00 0.00 51 1014.5
20260906182535 98 0 0.0 0.0 0.00 0.00 0.00 50 1014.5
20260906182035 98 0 0.0 0.0 0.00 0.00 0.00 47 1014.6
20260906181602 98 0 0.0 0.0 0.00 0.00 0.00 49 1014.6
20260906181035 97 0 0.0 0.0 0.00 0.00 0.00 51 1014.6
20260906180535 96 0 0.0 0.0 0.00 0.00 0.00 49 1014.8
20260906180101 96 0 0.0 0.0 0.00 0.00 0.00 48 1015.0
20260906175535 96 0 0.0 0.0 0.00 0.00 0.00 49 1015.0
20260906175037 96 0 0.0 0.0 0.00 0.00 0.00 50 1014.9
20260906174609 96 0 0.0 0.0 0.00 0.00 0.00 51 1015.1
20260906174035 96 0 0.0 0.0 0.00 0.00 0.00 50 1015.2
20260906173535 97 0 0.0 0.0 0.00 0.00 0.00 50 1015.3
20260906173059 97 0 0.0 0.0 0.00 0.00 0.00 55 1015.3
20260906172539 96 0 0.0 0.0 0.00 0.00 0.00 52 1015.4
20260906172035 96 0 0.0 0.0 0.00 0.00 0.00 52 1015.4
20260906171600 96 0 0.0 0.0 0.00 0.00 0.00 55 1015.5
20260906171035 96 0 0.0 0.0 0.00 0.00 0.00 53 1015.5
20260906170535 96 0 0.0 0.0 0.00 0.00 0.00 56 1015.6
20260906170100 95 0 0.0 0.0 0.00 0.00 0.00 53 1015.7
20260906165535 95 0 0.0 0.0 0.00 0.00 0.00 55 1015.7
20260906165035 95 0 0.0 0.0 0.00 0.00 0.00 55 1015.8
20260906164557 95 0 0.0 0.0 0.00 0.00 0.00 57 1015.8
20260906164035 95 0 0.0 0.0 0.00 0.00 0.00 56 1015.9
20260906163539 94 0 0.0 0.0 0.00 0.00 0.00 56 1015.9
20260906163058 94 0 0.0 0.0 0.00 0.00 0.00 56 1016.0
20260906162536 95 0 0.0 0.0 0.00 0.00 0.00 56 1016.0
20260906162037 94 0 0.0 0.0 0.00 0.00 0.00 56 1015.8
20260906161601 94 0 0.0 0.0 0.00 0.00 0.00 58 1015.9
20260906161035 94 0 0.0 0.0 0.00 0.00 0.00 57 1015.8
20260906160535 93 0 0.0 0.0 0.00 0.00 0.00 58 1015.8
20260906160054 93 0 0.0 0.0 0.00 0.00 0.00 58 1015.9
20260906155535 93 0 0.0 0.0 0.00 0.00 0.00 61 1015.9
20260906155034 93 0 0.0 0.0 0.00 0.00 0.00 60 1015.9
20260906154601 92 0 0.0 0.0 0.00 0.00 0.00 61 1015.8
20260906154035 92 0 0.0 0.0 0.00 0.00 0.00 61 1015.7
20260906153538 92 0 0.0 0.0 0.00 0.00 0.00 62 1015.8
20260906153125 92 0 0.0 0.0 0.00 0.00 0.00 61 1015.6
20260906152535 92 0 0.0 0.0 0.00 0.00 0.00 64 1015.5
20260906152035 91 0 0.0 0.0 0.00 0.00 0.00 63 1015.5
20260906151556 91 0 0.0 0.0 0.00 0.00 0.00 65 1015.4
20260906151035 91 0 0.0 0.0 0.00 0.00 0.00 65 1015.3
20260906150535 90 0 0.0 0.0 0.00 0.00 0.00 67 1015.2
20260906150100 90 0 0.0 0.0 0.00 0.00 0.00 68 1015.3
20260906145535 90 0 0.0 0.0 0.00 0.00 0.00 68 1015.3
20260906145035 90 0 0.0 0.0 0.00 0.00 0.00 67 1015.2
20260906144605 89 0 0.0 0.0 0.00 0.00 0.00 69 1015.3
20260906144034 89 0 0.0 0.0 0.00 0.00 0.00 69 1015.3
20260906143536 88 0 0.0 0.0 0.00 0.00 0.00 70 1015.2
20260906143102 88 0 0.0 0.0 0.00 0.00 0.00 71 1015.2
20260906142535 87 0 0.0 0.0 0.00 0.00 0.00 72 1015.2
20260906142038 86 0 0.0 0.0 0.00 0.00 0.00 72 1015.3
20260906141601 86 0 0.0 0.0 0.00 0.00 0.00 73 1015.5
20260906141035 85 0 0.0 0.0 0.00 0.00 0.00 74 1015.5
20260906140534 85 0 0.0 0.0 0.00 0.00 0.00 75 1015.4
20260906140107 85 0 0.0 0.0 0.00 0.00 0.00 76 1015.5
20260906135536 84 0 0.0 0.0 0.00 0.00 0.00 77 1015.5
20260906135035 83 0 0.0 0.0 0.00 0.00 0.00 78 1015.5
20260906134624 83 0 0.0 0.0 0.00 0.00 0.00 79 1015.5
20260906134036 82 0 0.0 0.0 0.00 0.00 0.00 81 1015.5
20260906133534 82 0 0.0 0.0 0.00 0.00 0.00 81 1015.5
20260906133103 82 0 0.0 0.0 0.00 0.00 0.00 82 1015.6
20260906132536 81 0 0.0 0.0 0.00 0.00 0.00 83 1015.6
20260906132035 81 0 0.0 0.0 0.00 0.00 0.00 83 1015.4
20260906131557 81 0 0.0 0.0 0.00 0.00 0.00 84 1015.5
20260906131035 80 0 0.0 0.0 0.00 0.00 0.00 84 1015.4
20260906130535 80 0 0.0 0.0 0.00 0.00 0.00 84 1015.4
20260906130104 79 0 0.0 0.0 0.00 0.00 0.00 84 1015.3
20260906125535 79 0 0.0 0.0 0.00 0.00 0.00 84 1015.3
20260906125035 79 0 0.0 0.0 0.00 0.00 0.00 84 1015.3
20260906124551 78 0 0.0 0.0 0.00 0.00 0.00 84 1015.2
20260906124035 78 0 0.0 0.0 0.00 0.00 0.00 83 1015.2
20260906123535 78 0 0.0 0.0 0.00 0.00 0.00 83 1015.1
20260906123058 78 0 0.0 0.0 0.00 0.00 0.00 83 1015.1
20260906122536 78 0 0.0 0.0 0.00 0.00 0.00 83 1015.1
20260906122035 78 0 0.0 0.0 0.00 0.00 0.00 82 1015.0
20260906121605 78 0 0.0 0.0 0.00 0.00 0.00 82 1015.0
20260906121036 78 0 0.0 0.0 0.00 0.00 0.00 82 1014.9
20260906120535 78 0 0.0 0.0 0.00 0.00 0.00 82 1014.9
20260906120107 78 0 0.0 0.0 0.00 0.00 0.00 82 1014.9
20260906115538 79 0 0.0 0.0 0.00 0.00 0.00 82 1014.7
20260906115034 79 0 0.0 0.0 0.00 0.00 0.00 81 1014.7
20260906114558 79 0 0.0 0.0 0.00 0.00 0.00 81 1014.8
20260906114036 79 0 0.0 0.0 0.00 0.00 0.00 81 1014.7
20260906113535 79 0 0.0 0.0 0.00 0.00 0.00 81 1014.7
20260906113057 79 0 0.0 0.0 0.00 0.00 0.00 81 1014.6
20260906112535 79 0 0.0 0.0 0.00 0.00 0.00 80 1014.5
20260906112036 79 0 0.0 0.0 0.00 0.00 0.00 80 1014.4
20260906111621 79 0 0.0 0.0 0.00 0.00 0.00 80 1014.4
20260906111035 79 0 0.0 0.0 0.00 0.00 0.00 79 1014.4
20260906110536 79 0 0.0 0.0 0.00 0.00 0.00 79 1014.3
20260906110057 79 0 0.0 0.0 0.00 0.00 0.00 79 1014.2
20260906105536 79 0 0.0 0.0 0.00 0.00 0.00 79 1014.2
20260906105034 79 0 0.0 0.0 0.00 0.00 0.00 79 1014.2
20260906104551 79 0 0.0 0.0 0.00 0.00 0.00 79 1014.0
20260906104037 80 0 0.0 0.0 0.00 0.00 0.00 79 1014.1
20260906103534 80 0 0.0 0.0 0.00 0.00 0.00 78 1014.0
20260906103049 80 0 0.0 0.0 0.00 0.00 0.00 78 1014.1
20260906102535 80 0 0.0 0.0 0.00 0.00 0.00 78 1014.0
20260906102036 80 0 0.0 0.0 0.00 0.00 0.00 78 1014.1
20260906101600 80 0 0.0 0.0 0.00 0.00 0.00 78 1014.0
20260906101035 80 0 0.0 0.0 0.00 0.00 0.00 77 1014.0
20260906100536 80 0 0.0 0.0 0.00 0.00 0.00 77 1013.9
20260906100057 80 0 0.0 0.0 0.00 0.00 0.00 78 1014.0
20260906095539 80 0 0.0 0.0 0.00 0.00 0.00 77 1013.9
20260906095035 80 0 0.0 0.0 0.00 0.00 0.00 77 1013.8
20260906094551 81 0 0.0 0.0 0.00 0.00 0.00 77 1013.8
20260906094035 81 0 0.0 0.0 0.00 0.00 0.00 77 1013.8
20260906093535 81 0 0.0 0.0 0.00 0.00 0.00 77 1013.8
20260906093104 81 0 0.0 0.0 0.00 0.00 0.00 77 1013.6
20260906092536 81 0 0.0 0.0 0.00 0.00 0.00 77 1013.6
20260906092036 81 0 0.0 0.0 0.00 0.00 0.00 76 1013.5
20260906091557 81 0 0.0 0.0 0.00 0.00 0.00 76 1013.5
20260906091036 81 0 0.0 0.0 0.00 0.00 0.00 76 1013.5
20260906090538 81 0 0.0 0.0 0.00 0.00 0.00 76 1013.5
20260906090113 81 0 0.0 0.0 0.00 0.00 0.00 76 1013.4
20260906085535 81 0 0.0 0.0 0.00 0.00 0.00 76 1013.4
20260906085033 81 0 0.0 0.0 0.00 0.00 0.00 76 1013.5
20260906084611 82 0 0.0 0.0 0.00 0.00 0.00 76 1013.5
20260906084035 82 0 0.0 0.0 0.00 0.00 0.00 76 1013.5
20260906083535 82 0 0.0 0.0 0.00 0.00 0.00 76 1013.4
20260906083057 82 0 0.0 0.0 0.00 0.00 0.00 76 1013.5
20260906082536 82 0 0.0 0.0 0.00 0.00 0.00 75 1013.4
20260906082037 82 0 0.0 0.0 0.00 0.00 0.00 75 1013.4
20260906081604 82 0 0.0 0.0 0.00 0.00 0.00 75 1013.3
20260906081036 82 0 0.0 0.0 0.00 0.00 0.00 75 1013.2
20260906080536 82 0 0.0 0.0 0.00 0.00 0.00 75 1013.2
20260906080100 82 0 0.0 0.0 0.00 0.00 0.00 75 1013.1
20260906075535 82 0 0.0 0.0 0.00 0.00 0.00 75 1013.3
20260906075037 82 0 0.0 0.0 0.00 0.00 0.00 74 1013.4
20260906074606 82 0 0.0 0.0 0.00 0.00 0.00 74 1013.4
20260906074035 82 0 0.0 0.0 0.00 0.00 0.00 74 1013.5
20260906073537 82 0 0.0 0.0 0.00 0.00 0.00 73 1013.5
20260906073107 82 0 0.0 0.0 0.00 0.00 0.00 73 1013.5
20260906072536 83 0 0.0 0.0 0.00 0.00 0.00 73 1013.7
20260906072035 83 0 0.0 0.0 0.00 0.00 0.00 73 1013.8
20260906071557 83 0 0.0 0.0 0.00 0.00 0.00 72 1013.7
20260906071036 83 0 0.0 0.0 0.00 0.00 0.00 72 1013.8
20260906070536 83 0 0.0 0.0 0.00 0.00 0.00 72 1013.8
20260906070125 83 0 0.0 0.0 0.00 0.00 0.00 72 1013.8
20260906065538 83 0 0.0 0.0 0.00 0.00 0.00 72 1013.9
20260906065036 83 0 0.0 0.0 0.00 0.00 0.00 71 1013.8
20260906064556 83 0 0.0 0.0 0.00 0.00 0.00 71 1013.7
20260906064035 83 0 0.0 0.0 0.00 0.00 0.00 71 1013.7
20260906063536 83 0 0.0 0.0 0.00 0.00 0.00 70 1013.8
20260906063051 83 0 0.0 0.0 0.00 0.00 0.00 70 1013.8
20260906062535 83 0 0.0 0.0 0.00 0.00 0.00 70 1013.7
20260906062035 84 0 0.0 0.0 0.00 0.00 0.00 69 1013.7
20260906061635 84 0 0.0 0.0 0.00 0.00 0.00 69 1013.5
20260906061035 84 0 0.0 0.0 0.00 0.00 0.00 68 1013.6
20260906060536 84 0 0.0 0.0 0.00 0.00 0.00 67 1013.5
20260906060100 84 0 0.0 0.0 0.00 0.00 0.00 67 1013.5
20260906055535 84 0 0.0 0.0 0.00 0.00 0.00 68 1013.7
20260906055035 84 0 0.0 0.0 0.00 0.00 0.00 68 1013.7
20260906054557 84 0 0.0 0.0 0.00 0.00 0.00 68 1013.9
20260906054035 85 0 0.0 0.0 0.00 0.00 0.00 68 1013.8
20260906053535 85 0 0.0 0.0 0.00 0.00 0.00 67 1013.7
20260906053058 85 0 0.0 0.0 0.00 0.00 0.00 67 1013.8
20260906052536 85 0 0.0 0.0 0.00 0.00 0.00 67 1013.9
20260906052036 85 0 0.0 0.0 0.00 0.00 0.00 66 1014.1
20260906051554 85 0 0.0 0.0 0.00 0.00 0.00 66 1013.9
20260906051038 85 0 0.0 0.0 0.00 0.00 0.00 66 1013.9
20260906050535 85 0 0.0 0.0 0.00 0.00 0.00 66 1013.9
20260906050110 85 0 0.0 0.0 0.00 0.00 0.00 66 1013.8
20260906045538 85 0 0.0 0.0 0.00 0.00 0.00 66 1013.8
20260906045035 85 0 0.0 0.0 0.00 0.00 0.00 65 1013.7
20260906044553 86 0 0.0 0.0 0.00 0.00 0.00 65 1013.8
20260906044034 86 0 0.0 0.0 0.00 0.00 0.00 65 1013.7
20260906043536 86 0 0.0 0.0 0.00 0.00 0.00 65 1013.7
20260906043109 86 0 0.0 0.0 0.00 0.00 0.00 64 1013.7
20260906042534 86 0 0.0 0.0 0.00 0.00 0.00 63 1013.8
20260906042035 86 0 0.0 0.0 0.00 0.00 0.00 63 1013.6
20260906041557 86 0 0.0 0.0 0.00 0.00 0.00 63 1013.7
20260906041034 87 0 0.0 0.0 0.00 0.00 0.00 63 1013.6
20260906040535 87 0 0.0 0.0 0.00 0.00 0.00 62 1013.7
20260906040115 87 0 0.0 0.0 0.00 0.00 0.00 62 1013.6
20260906035536 87 0 0.0 0.0 0.00 0.00 0.00 62 1013.6
20260906035038 87 0 0.0 0.0 0.00 0.00 0.00 62 1013.7
20260906034553 87 0 0.0 0.0 0.00 0.00 0.00 61 1013.8
20260906034042 87 0 0.0 0.0 0.00 0.00 0.00 61 1013.8
20260906033536 88 0 0.0 0.0 0.00 0.00 0.00 61 1013.8
20260906033102 88 0 0.0 0.0 0.00 0.00 0.00 61 1013.9
20260906032539 88 0 0.0 0.0 0.00 0.00 0.00 61 1013.8
20260906032036 88 0 0.0 0.0 0.00 0.00 0.00 60 1013.8
20260906031607 88 0 0.0 0.0 0.00 0.00 0.00 60 1013.8
20260906031038 88 0 0.0 0.0 0.00 0.00 0.00 60 1013.9
20260906030536 88 0 0.0 0.0 0.00 0.00 0.00 60 1013.9
20260906030107 88 0 0.0 0.0 0.00 0.00 0.00 59 1013.8
20260906025532 89 0 0.0 0.0 0.00 0.00 0.00 60 1013.7
20260906025033 89 0 0.0 0.0 0.00 0.00 0.00 59 1013.7
20260906024558 89 0 0.0 0.0 0.00 0.00 0.00 59 1013.8
20260906024035 89 0 0.0 0.0 0.00 0.00 0.00 59 1013.7
20260906023538 89 0 0.0 0.0 0.00 0.00 0.00 59 1013.4
20260906023130 90 0 0.0 0.0 0.00 0.00 0.00 59 1013.2
20260906022537 90 0 0.0 0.0 0.00 0.00 0.00 58 1013.2
20260906022036 90 0 0.0 0.0 0.00 0.00 0.00 58 1013.2
20260906021558 91 0 0.0 0.0 0.00 0.00 0.00 57 1013.0
20260906021035 91 0 0.0 0.0 0.00 0.00 0.00 56 1012.9
20260906020536 92 0 0.0 0.0 0.00 0.00 0.00 55 1013.2
20260906020056 92 0 0.0 0.0 0.00 0.00 0.00 54 1013.1
20260906015535 92 0 0.0 0.0 0.00 0.00 0.00 53 1013.0
20260906015035 93 0 0.0 0.0 0.00 0.00 0.00 52 1012.7
20260906014623 93 0 0.0 0.0 0.00 0.00 0.00 50 1012.8
20260906014037 93 0 0.0 0.0 0.00 0.00 0.00 49 1012.7
20260906013540 93 0 0.0 0.0 0.00 0.00 0.00 48 1012.5
20260906013101 94 0 0.0 0.0 0.00 0.00 0.00 48 1012.5
20260906012535 94 0 0.0 0.0 0.00 0.00 0.00 48 1012.2
20260906012035 94 0 0.0 0.0 0.00 0.00 0.00 47 1012.4
20260906011601 94 0 0.0 0.0 0.00 0.00 0.00 47 1012.2
20260906011033 94 0 0.0 0.0 0.00 0.00 0.00 47 1012.2
20260906010535 94 0 0.0 0.0 0.00 0.00 0.00 46 1012.1
20260906010057 94 0 0.0 0.0 0.00 0.00 0.00 46 1012.1
20260906005535 94 0 0.0 0.0 0.00 0.00 0.00 46 1012.1
20260906005036 95 0 0.0 0.0 0.00 0.00 0.00 46 1012.1
20260906004609 95 0 0.0 0.0 0.00 0.00 0.00 45 1012.1
20260906004034 96 0 0.0 0.0 0.00 0.00 0.00 44 1012.0
20260906003539 96 0 0.0 0.0 0.00 0.00 0.00 44 1012.0
20260906003059 96 0 0.0 0.0 0.00 0.00 0.00 44 1011.9
20260906002535 96 0 0.0 0.0 0.00 0.00 0.00 43 1012.0
20260906002034 96 0 0.0 0.0 0.00 0.00 0.00 43 1011.9
20260906001557 97 0 0.0 0.0 0.00 0.00 0.00 43 1011.9
20260906001039 97 0 0.0 0.0 0.00 0.00 0.00 42 1011.9
20260906000537 97 0 0.0 0.0 0.00 0.00 0.00 42 1011.9
20260906000110 97 0 0.0 0.0 0.00 0.00 0.00 43 1011.8
20260905235535 97 0 0.0 0.0 0.00 0.00 0.00 43 1011.9
20260905235035 97 0 0.0 0.0 0.00 0.00 0.00 42 1011.9
20260905234602 98 0 0.0 0.0 0.00 0.00 0.00 42 1011.6
20260905234035 98 0 0.0 0.0 0.00 0.00 0.00 42 1011.5
20260905233536 98 0 0.0 0.0 0.00 0.00 0.00 42 1011.7
20260905233059 98 0 0.0 0.0 0.00 0.00 0.00 42 1011.5
20260905232532 99 0 0.0 0.0 0.00 0.00 0.00 41 1011.6
20260905232036 99 0 0.0 0.0 0.00 0.00 0.00 42 1011.6
20260905231556 99 0 0.0 0.0 0.00 0.00 0.00 41 1011.6
20260905231032 99 0 0.0 0.0 0.00 0.00 0.00 41 1011.6
20260905230535 99 0 0.0 0.0 0.00 0.00 0.00 41 1011.6
20260905230108 100 0 0.0 0.0 0.00 0.00 0.00 42 1011.6
20260905225535 100 0 0.0 0.0 0.00 0.00 0.00 41 1011.6
20260905225034 100 0 0.0 0.0 0.00 0.00 0.00 41 1011.6
20260905224607 99 0 0.0 0.0 0.00 0.00 0.00 41 1011.6
20260905224036 99 0 0.0 0.0 0.00 0.00 0.00 41 1011.6